Preview of NWS' New Version of Forecast
This preview is not operational and should not be used for support decisions.

Regional Weather Roundup (RWR)

Issued by National Weather Service (NWS)

                            
000
ASUS43 KMKX 190459
RWRWI 

WISCONSIN REGIONAL WEATHER ROUNDUP
NATIONAL WEATHER SERVICE MILWAUKEE/SULLIVAN WI
1200 AM CDT FRI APR 19 2019

NOTE: "FAIR" INDICATES FEW OR NO CLOUDS BELOW 12,000 FEET WITH NO
SIGNIFICANT WEATHER AND/OR OBSTRUCTIONS TO VISIBILITY.

WIZ001-002-006>008-014>016-023>028-190600-
NORTHWEST WISCONSIN
  
CITY           SKY/WX    TMP DP  RH WIND       PRES   REMARKS
SUPERIOR ARPT  FAIR      35  34  94 W5        29.98S WCI  31          
ASHLAND        FAIR      34  34 100 SW5       29.97S WCI  30          
HAYWARD        MOCLDY    29  28  96 NE3       29.97S FOG              
SIREN          FAIR      33  32  96 CALM      29.99S                  
CUMBERLAND     FAIR      36  32  87 NW5       29.96F WCI  32          
RICE LAKE      FAIR      37  31  77 N3        29.97S                  
CHETEK         FAIR      34  34 100 NW3       29.96S FOG              
LADYSMITH      FAIR      37  36  96 NW7       29.97S WCI  31          
EAU CLAIRE     NOT AVBL                                               
MENOMONIE      FAIR      36  32  87 NW3       29.97S                  
NEW RICHMOND   FAIR      37  33  87 NW3       29.98F                  
OSCEOLA        FAIR      36  34  92 CALM      30.01F                  
$$
 
WIZ003>005-009-010-017-018-190600-
NORTH CENTRAL WISCONSIN
  
CITY           SKY/WX    TMP DP  RH WIND       PRES   REMARKS
MANITOWISH WTR FAIR      31  31 100 CALM      29.93R FOG              
ARBOR VITAE    FOG       32  30  94 CALM      29.91S VSB 3/4          
WOODRUFF       FOG       32  30  94 CALM      29.91S VSB 3/4          
RHINELANDER    FAIR      37  33  85 N3        29.91R                  
EAGLE RIVER    FAIR      34  34 100 CALM      29.89S                  
LAND O LAKES   FAIR      32  32 100 CALM      29.91S                  
PHILLIPS       FAIR      32  32 100 CALM      29.93S                  
TOMAHAWK       FAIR      33  32  94 CALM      29.91S                  
MEDFORD        FAIR      34  33  96 N7        29.91S WCI  28          
MERRILL        FAIR      35  35  99 N6        29.91S WCI  30          
$$
 
WIZ029-030-035-036-043>047-190600-
CENTRAL WISCONSIN
  
CITY           SKY/WX    TMP DP  RH WIND       PRES   REMARKS
WAUSAU         FAIR      38  34  85 N6        29.88S WCI  33          
MOSINEE        FAIR      37  34  87 N9        29.89F WCI  31          
MARSHFIELD     FAIR      38  35  89 N7        29.89S WCI  33          
STEVENS POINT  FAIR      37  35  92 N6        29.89S WCI  32          
WAUPACA        FAIR      43  36  78 N10G16    29.87S                  
WAUTOMA        FAIR      40  36  86 N10       29.87S WCI  33          
WISC RAPIDS    FAIR      40  32  73 N14       29.90R WCI  32          
CAMP DOUGLAS   NOT AVBL                                               
$$
 
WIZ011>013-019>022-031-037>040-048>050-190600-
NORTHEAST WISCONSIN
  
CITY           SKY/WX    TMP DP  RH WIND       PRES   REMARKS
ANTIGO         MOCLDY    37  34  91 N13       29.88S WCI  28          
SHAWANO        FAIR      43  37  81 N13G18    29.86S                  
OCONTO         MOCLDY    40  36  84 N10       29.84S WCI  34          
STURGEON BAY   CLOUDY    39  36  89 N15       29.82F WCI  31          
GREEN BAY      FAIR      43  37  79 N14       29.83F                  
MANITOWOC      CLOUDY    42  37  82 N17       29.81S                  
APPLETON       CLOUDY    41  34  75 N15G21    29.82S                  
CLINTONVILLE   CLOUDY    41  35  78 N7        29.86S                  
OSHKOSH        MOCLDY    41  36  82 N15G22    29.83S                  
$$
 
WIZ032>034-041-042-053>061-190600-
SOUTHWEST WISCONSIN
  
CITY           SKY/WX    TMP DP  RH WIND       PRES   REMARKS
LA CROSSE      FAIR      45  36  70 N10       29.93R                  
SPARTA         FAIR      42  37  83 CALM      29.92F                  
VIROQUA        CLOUDY    42  40  91 N15G21    29.90S                  
BOSCOBEL       FAIR      46  36  68 N9        29.89F                  
PRAIRIE DU CHI CLOUDY    46  35  64 N10       29.90S                  
PLATTEVILLE    MOCLDY    43  38  84 N14       29.86S                  
$$

WIZ056-057-062-063-064-067-068-190600-
SOUTH CENTRAL WISCONSIN
  
CITY           SKY/WX    TMP DP  RH WIND       PRES   REMARKS
REEDSBURG      FAIR      40  36  85 N12       29.87S WCI  34          
BARABOO/DELLS  FAIR      40  35  83 N12       29.86F WCI  33          
LONE ROCK      NOT AVBL                                               
MINERAL POINT  CLOUDY    43  37  81 N12       29.85S                  
MADISON        MOCLDY    41  35  79 N12       29.84S                  
MIDDLETON      CLOUDY    43  37  79 N9G17     29.85S                  
WATERTOWN      CLOUDY    42  38  89 N10G16    29.82S                  
MONROE         CLOUDY    42  35  75 MISG      29.82F                  
JANESVILLE     CLOUDY    45  36  70 N9        29.82S                  
$$
 
WIZ051-052-058>065-066-070>072-190600-
SOUTHEAST WISCONSIN
  
CITY           SKY/WX    TMP DP  RH WIND       PRES   REMARKS
MILWAUKEE      CLOUDY    45  35  68 N14G24    29.78S                  
WAUKESHA       CLOUDY    39  36  87 N10G16    29.81S WCI  32          
MILWAUKEE/TIMM CLOUDY    43  32  65 N12G22    29.80F                  
RACINE         CLOUDY    44  36  73 N20G32    29.79F                  
KENOSHA        CLOUDY    44  38  79 N12G23    29.78F                  
FOND DU LAC    CLOUDY    41  37  86 N13       29.83R                  
SHEBOYGAN      CLOUDY    43  37  79 N14G23    29.80S                  
WEST BEND      CLOUDY    41  36  81 N10G18    29.80S                  
JUNEAU         CLOUDY    40  37  86 N14       29.83S WCI  33          
$$

LSZ147-162-190600-
LAKE SUPERIOR
  
STATION/POSITION TIME  TEMP    WIND        PRES    WAVE
                       AIR SEA DIR/SP/G            HT/PER
                 (UTC) (F)     (DEG/KT/KT) (MB)    (FT/S)
$$
 
LMZ867-665-643>646-190600-
LAKE MICHIGAN
  
STATION/POSITION TIME  TEMP    WIND        PRES    WAVE
                       AIR SEA DIR/SP/G            HT/PER
                 (UTC) (F)     (DEG/KT/KT) (MB)    (FT/S)
NORTHPORT PIER   0440   37     330/  9/ 11 1010.2R
KEWAUNEE LAKESHO 0424   42     350/ 11/ 18 1008.9
SHEBOYGAN LAKESH 0400   42     350/ 20/ 22 1009.3R
MILWAUKEE LAKESH 0430   44                   N/A
KENOSHA   LAKESH 0400   44     350/ 18/ 24 1008.5
$$

TC  - TEMPERATURE IN CELSIUS
VSB - VISIBILITY IN STATUTE MILES
WCI - WIND CHILL INDEX
HX  - HEAT INDEX